Weather History for Frenchville, ME

Change the Weather History Date:

Tuesday, June 18, 2013

  Actual Average Record
Temperature  
Mean Temperature 56 °F 60 °F  
Max Temperature 64 °F 70 °F 88 °F (2006)
Min Temperature 47 °F 50 °F 44 °F (2000)
Degree Days  
Heating Degree Days 9    
Month to date heating degree days 164  
Since 1 July heating degree days 9046  
Cooling Degree Days 0    
Month to date cooling degree days 0  
Year to date cooling degree days 11  
Growing Degree Days 6 (Base 50)    
Moisture  
Dew Point 46 °F    
Average Humidity 79    
Maximum Humidity 100    
Minimum Humidity 52    
Precipitation  
Precipitation T in 0.13 in 0.84 in (2011)
Month to date precipitation 2.44 2.08  
Year to date precipitation 12.33 11.98  
Sea Level Pressure  
Sea Level Pressure 29.87 in    
Wind  
Wind Speed 8 mph (NW)    
Max Wind Speed 21 mph    
Max Gust Speed 29 mph    
Visibility 10 miles    
Events Rain    
T = Trace of Precipitation, MM = Missing Value Source: NWS Daily Summary

Daily Weather History Graph

Daily Weather History Graph

Search for Another Location

Airport:

Trip Planner

Search our weather history database for the weather conditions in past years. The results will help you decide how hot, cold, wet, or windy it might be!

Date:

Astronomy

Jun. 18, 2013 Rise Set
Actual Time 4:36 AM EDT 8:32 PM EDT
Civil Twilight 3:56 AM EDT 9:12 PM EDT
Nautical Twilight 3:00 AM EDT 10:08 PM EDT
Astronomical Twilight 1:34 AM EDT 11:34 PM EDT
Moon 2:57 PM EDT (6/18) 1:01 AM EDT (6/18)
Length of Visible Light 17h 16m
Length of Day
15h 56m
Waxing Gibbous, 70% of the Moon is Illuminated
Jun 18
Waxing Gibbous
Jun 23
Full
Jun 30
Last Quarter
Jul 8
New
Jul 15
First Quarter

Hourly Weather History & Observations

Time (EDT) Temp. Dew Point Humidity Pressure Visibility Wind Dir Wind Speed Gust Speed Precip Events Conditions
12:02 AM 51.8 °F 48.2 °F 88% 29.79 in 10.0 mi NW 10.4 mph - N/A   Overcast
12:53 AM 50.0 °F 46.9 °F 89% 29.80 in 10.0 mi WNW 9.2 mph - N/A   Scattered Clouds
1:53 AM 48.9 °F 46.9 °F 93% 29.80 in 10.0 mi West 11.5 mph - N/A   Partly Cloudy
2:53 AM 50.0 °F 46.9 °F 89% 29.81 in 10.0 mi West 10.4 mph - N/A   Overcast
3:02 AM 48.2 °F 48.2 °F 100% 29.81 in 10.0 mi West 8.1 mph - N/A   Overcast
3:53 AM 50.0 °F 46.9 °F 89% 29.81 in 10.0 mi WNW 9.2 mph - N/A   Overcast
4:39 AM 50.0 °F 46.4 °F 87% 29.81 in 10.0 mi NW 5.8 mph - N/A   Overcast
4:53 AM 50.0 °F 46.9 °F 89% 29.82 in 10.0 mi WNW 8.1 mph - N/A   Overcast
5:27 AM 50.0 °F 46.4 °F 87% 29.83 in 10.0 mi WNW 12.7 mph 17.3 mph N/A   Overcast
5:53 AM 50.0 °F 46.9 °F 89% 29.84 in 10.0 mi NNW 4.6 mph - N/A   Overcast
6:53 AM 51.1 °F 46.9 °F 86% 29.85 in 10.0 mi NNW 9.2 mph - N/A   Overcast
7:00 AM 51.8 °F 46.4 °F 82% 29.85 in 10.0 mi NNW 9.2 mph - N/A   Overcast
7:48 AM 51.8 °F 48.2 °F 88% 29.86 in 10.0 mi WNW 10.4 mph - N/A   Overcast
7:53 AM 52.0 °F 46.9 °F 83% 29.86 in 10.0 mi NW 9.2 mph - N/A   Overcast
8:53 AM 53.1 °F 46.9 °F 80% 29.87 in 10.0 mi WNW 11.5 mph - N/A   Overcast
9:44 AM 53.6 °F 48.2 °F 82% 29.87 in 10.0 mi WNW 9.2 mph - N/A   Overcast
9:53 AM 54.0 °F 46.9 °F 77% 29.87 in 10.0 mi WNW 8.1 mph - N/A   Overcast
10:12 AM 53.6 °F 48.2 °F 82% 29.87 in 10.0 mi NW 6.9 mph - N/A   Overcast
10:53 AM 53.1 °F 46.9 °F 80% 29.88 in 10.0 mi WNW 8.1 mph - N/A   Overcast
11:32 AM 55.4 °F 48.2 °F 77% 29.87 in 10.0 mi NW 5.8 mph - N/A   Overcast
11:53 AM 54.0 °F 46.9 °F 77% 29.89 in 10.0 mi WNW 8.1 mph - N/A   Overcast
12:25 PM 53.6 °F 46.4 °F 77% 29.90 in 10.0 mi WNW 11.5 mph - N/A   Overcast
12:41 PM 53.6 °F 46.4 °F 77% 29.90 in 10.0 mi WNW 8.1 mph - N/A   Overcast
12:53 PM 55.0 °F 46.9 °F 74% 29.91 in 10.0 mi West 10.4 mph - N/A   Overcast
1:53 PM 57.9 °F 46.9 °F 67% 29.89 in 10.0 mi WNW 9.2 mph - N/A   Scattered Clouds
2:53 PM 60.1 °F 46.0 °F 60% 29.87 in 10.0 mi WNW 9.2 mph 18.4 mph N/A   Scattered Clouds
3:53 PM 63.0 °F 45.0 °F 52% 29.87 in 10.0 mi WNW 8.1 mph - N/A   Scattered Clouds
4:53 PM 63.0 °F 45.0 °F 52% 29.87 in 10.0 mi NNW 10.4 mph - N/A   Mostly Cloudy
5:53 PM 62.1 °F 44.1 °F 52% 29.87 in 10.0 mi NW 10.4 mph - N/A   Mostly Cloudy
6:53 PM 59.0 °F 45.0 °F 60% 29.89 in 10.0 mi WNW 3.5 mph - N/A   Mostly Cloudy
7:53 PM 52.0 °F 45.0 °F 77% 29.94 in 10.0 mi WNW 9.2 mph - 0.00 in Rain Light Rain
8:53 PM 51.1 °F 45.0 °F 80% 29.94 in 10.0 mi NW 5.8 mph - 0.00 in   Overcast
9:53 PM 50.0 °F 45.0 °F 83% 29.94 in 10.0 mi NW 6.9 mph - N/A   Overcast
10:53 PM 48.9 °F 44.1 °F 83% 29.94 in 10.0 mi WNW 5.8 mph - N/A   Scattered Clouds
11:53 PM 48.9 °F 44.1 °F 83% 29.93 in 10.0 mi NW 5.8 mph - N/A   Partly Cloudy